Location: ???????
(60.4260°N, 46.9069°E)
Time: 07:35:42
(UTC+00:00)

ERS-2 - Pass Details

Date: 30 March 2020
Orbit: 494 x 498 km, 98.5° (Epoch: 26 May)

Event Time Altitude Azimuth Distance (km) Brightness Sun altitude
Exits shadow 00:19:47 16° 282° (WNW) 1,370 4.0 -14.7°
Drops below altitude 10° 00:21:35 10° 311° (NW) 1,708 4.7 -14.5°
Sets 00:24:18 0° 333° (NNW) 2,597 5.9 -14.2°
